Find Aerocube 16B

NORAD ID: 59291 Int'l Des: 2024-053 Owner: AERO Country: US operational
LEOCIRCULAR

現在のビュー

3D地球を読み込み中...

Aerocube 16Bについて

説明を読み込み中...

次回通過

Passes for default location (London). Set your location on the main map for personalized predictions.

高度履歴

Loading altitude history...

軌道要素

1 59291U 24053D 26149.78900651 .00018733 00000-0 42282-3 0 9991
2 59291 49.9927 58.4562 0002222 248.0313 112.0415 15.43195967118348
Epoch: May 29, 2026 • Age: 22 hours

現在のステータス

高度 436.3 km
速度 7.65 km/s
衛星直下点 10.95°N, 75.06°E
打ち上げ日 Mar 21, 2024
運用期間 2.1 years
タイプ other

技術仕様

分類 Payload
質量 10.00 kg
乾燥質量 10.00 kg
総質量 10.00 kg
長さ 2.00 m
直径 1.00 m
スパン 5.00 m
形状 Box + pan
製造者 AERO
バスタイプ Cubesat 6U
フェーズステータス In Orbit
所有者/国 AERO/US

Most Searched